Showing default

SEDNA-1, 60580

Orbit data source: Space-Track

SEDNA-1, 60580 is a payload satellite owned by AAC ClydeSpace (US) in SSO that was launched on Fri, 16 Aug 2024 UTC via an FALCON 9 launch vehicle from the Air Force Western Test Range (AFWTR). Payload-class satellites include a variety of spacecraft equipped with specific instruments for various scientific and technological missions. These include communications satellites like Starlink; space stations such as the ISS; scientific satellites like the Hubble; Earth observation satellites from companies like Planet Labs, Umbra, and HawkEye 360; GPS; miniature CubeSats for education and research; and military/defense satellites.

Loading next visibility...
Identifier
60580, 2024-149DS
Orbit
SSO
Country
Flag of USUS
Related business
Manufacturer
AAC ClydeSpace
Mission
Operational Commercial Communications
Bus & Motor
CUBESAT 3U, Unknown motor
Mass
4 kg wet, 4 kg dry
Launch date (UTC)
2024-08-16 (2 years ago)
Launch vehicle
FALCON 9
Launch site
Air Force Western Test Range (AFWTR)
Object type
Payload
Rocket body
Debris
Shape & HBR
Box, 0.1 m
Radar Cross Section
0.035 m², Medium (>0.1 m² and < 1m²)

Expand to show TLE details & history
Last TLE update: 1 day ago

TLE from 1 day ago
0 SEDNA-1
1 60580U 24149DS  26173.45298023  .00004984  00000-0  33618-3 0  9990
2 60580  97.6623 253.9030 0008021 336.7163  23.3700 15.07076077101182
Epoch: 2026-06-22T10:52Z
TLE epoch observation values (Epoch: 2026-06-22T10:52:17.491Z)
Latitude
-0.00005°
Longitude
-179.80856°
Altitude
543.108 km
Speed
7.593 km/s
True Right ascension
16h 55m 36s
True Declination
0° 00' 00"
Sunlit
Object was in full shadow at epoch
Visualization orbit readout
Latitude
Unknown
Longitude
Unknown
Altitude
Unknown
Speed
Unknown
Apparent Right ascension
Unknown
Apparent Declination
Unknown
Sunlit
N/A
Visualization observer readout
Local Sidereal Time
09:27:59
Azimuth
Unknown
Elevation
Unknown
Doppler factor
Unknown
Orbital elements
Apogee altitude
547.685 km
Perigee altitude
536.584 km
Semi-major axis
6,920.271 km
Eccentricity
0.0008
Inclination
97.6623°
RAAN
253.903°
Arg. of periapsis
336.7163°
True anomaly
23.40649°
Mean anomaly
23.37°
Eccentric anomaly
23.38824°
Mean motion
3.77015 °/min
Orbital period
95.49 mins
BSTAR
0.00033618
Loading maneuver chart data...
Computing Atmospheric mass density...
Loading historical data...
Loading historical data...
Loading historical data...
Loading historical data...
Loading historical data...
Loading historical data...
Loading historical data...

Documentation

Showing up to 5 results
|